Wind_Speed
16 19 21 24 17 20 17 20 27 29 32 37 37 36 37 36 36 38 38 39 39 40 40 38 37 35 33 31 28 24 21 18 12 11 9 12 15 17 24 24 21 19 17
16 17 18 21 23 24 19 15 17 23 25 28 29 29 32 32 34 35 36 36 38 38 38 36 36 34 32 31 30 29 26 24 22 18 14 14 16 16 20 25 25 22 20
9 15 17 18 17 22 24 18 15 13 16 19 24 28 31 33 33 34 35 35 34 35 36 36 35 33 32 32 32 30 29 29 28 23 18 15 18 17 20 24 26 26 23
6 11 15 20 21 23 25 25 22 19 19 16 18 22 25 28 30 31 32 31 32 33 34 33 32 32 32 32 32 31 30 28 28 27 24 19 18 19 20 24 26 28 26
7 8 12 16 22 22 24 23 21 19 24 24 23 17 16 19 22 25 26 28 28 29 28 29 29 30 29 30 29 30 30 29 28 27 24 18 19 17 24 23 26 28 28
11 5 11 13 17 23 24 27 25 20 22 23 23 27 27 25 18 18 20 22 22 23 25 23 23 22 23 24 27 28 27 29 28 23 22 21 29 29 23 26 24 19 9
15 7 5 8 13 20 23 25 25 26 24 26 28 26 27 24 24 21 20 23 25 24 22 21 22 22 21 21 22 25 26 27 27 27 26 30 23 31 29 25 28 25 19
16 14 8 3 6 11 17 19 21 21 23 24 24 23 22 25 25 23 23 25 25 25 23 23 24 22 19 17 19 20 25 28 32 31 32 29 28 26 27 29 30 29 25
13 13 11 6 6 7 12 15 17 18 18 17 20 22 22 24 25 27 26 26 26 28 25 23 21 21 18 16 15 18 20 21 22 24 31 32 30 30 29 26 24 22 12
9 9 9 10 11 12 11 10 10 13 15 15 16 16 17 16 15 16 19 24 23 23 22 21 20 18 16 17 17 18 19 20 17 19 21 28 30 29 29 27 29 25 14
5 5 9 11 13 14 16 13 12 12 13 14 14 11 9 8 6 6 9 15 17 18 19 17 18 19 17 16 17 18 20 15 14 17 17 19 20 25 26 27 28 29 27
5 6 7 9 11 12 15 17 17 19 21 20 18 15 11 8 6 4 5 8 10 11 11 10 10 10 11 12 15 17 17 15 14 13 15 15 16 19 22 25 26 26 24
11 11 10 12 12 12 17 18 19 19 21 19 19 17 15 11 8 6 4 4 5 5 4 3 5 6 8 10 12 13 13 14 13 12 13 14 16 15 16 18 19 20 20
16 16 16 18 19 18 17 17 17 18 19 18 18 16 16 15 14 11 11 9 8 6 5 4 2 2 2 1 2 6 9 11 12 12 13 11 11 12 14 16 18 20 20
20 18 19 20 22 23 24 21 22 18 18 20 18 16 18 17 14 12 12 12 10 9 8 7 6 7 6 4 3 2 5 6 7 7 6 7 9 9 12 14 18 20 14
22 18 17 18 18 19 23 25 24 24 24 20 19 21 19 16 13 12 11 11 10 11 15 16 15 12 11 10 9 6 4 2 2 2 2 3 6 9 11 13 15 16 18
22 17 18 18 16 16 16 16 16 21 27 26 25 19 18 16 14 13 13 15 16 15 21 19 19 17 15 14 12 11 8 5 2 2 1 1 4 6 7 10 12 13 13
22 19 21 19 17 17 16 17 17 13 14 19 24 24 21 17 16 15 15 17 23 23 22 20 20 19 18 17 15 14 12 9 6 5 4 4 5 3 4 6 8 10 11
23 23 22 21 20 18 20 24 24 22 19 19 19 19 18 18 18 19 19 23 22 22 20 20 18 17 17 16 14 13 11 9 8 7 5 1 1 4 6 6 6 8 9
24 23 22 22 21 21 21 20 23 23 22 21 23 20 15 14 20 21 21 20 20 18 18 17 16 16 16 16 15 14 13 12 11 8 6 4 3 2 4 6 7 8 10
18 20 20 24 21 20 21 21 20 21 22 22 18 16 16 21 18 17 17 16 14 13 13 12 12 12 12 12 12 12 13 12 11 11 10 8 7 6 5 5 6 7 9
19 20 22 21 20 20 20 20 18 20 19 18 15 15 14 16 15 14 12 11 10 10 8 6 6 5 7 7 7 7 7 9 10 10 10 9 8 8 8 7 7 7 9
21 20 19 18 17 15 17 18 18 17 15 14 13 12 13 13 11 11 10 9 7 8 4 4 4 4 5 5 5 5 5 6 8 8 9 9 9 9 8 8 8 9 10
18 16 15 16 14 16 15 16 14 12 11 11 11 10 9 8 8 7 6 5 6 8 7 4 5 6 6 5 4 4 5 5 7 8 8 8 8 8 8 9 10 12 12
14 13 13 13 13 12 12 12 11 9 7 6 6 6 5 4 4 4 4 3 4 6 8 8 9 10 10 10 9 8 8 8 10 11 11 11 12 12 13 14 15 15 14
13 13 12 11 11 10 10 9 8 8 7 6 7 5 4 2 4 5 6 7 8 10 11 12 13 13 13 12 11 10 10 10 11 10 8 10 12 14 14 15 16 16 17
Wind_Direction
222 211 193 195 176 174 171 167 182 184 190 194 195 197 203 206 209 210 212 214 216 218 220 223 227 230 232 233 236 240 242 233 228 251 253 239 236 226 223 223 226 228 229
227 215 208 198 192 181 173 145 171 188 192 194 196 200 205 208 210 212 213 216 217 220 223 225 229 233 235 238 240 239 240 237 239 242 249 239 232 230 227 224 223 226 227
208 198 195 205 197 195 205 205 193 180 187 196 202 202 207 211 213 217 220 220 221 225 227 228 230 231 234 237 239 240 239 240 241 241 240 235 231 227 221 223 224 223 225
298 220 193 191 203 197 195 205 217 225 215 198 203 208 212 213 218 219 219 221 226 227 230 232 234 236 238 239 239 240 242 239 239 238 238 229 226 227 224 222 220 226 224
337 255 220 201 197 200 198 198 199 208 215 213 210 200 203 214 217 224 227 227 226 230 233 236 238 241 244 246 246 244 241 237 233 226 226 221 219 209 212 222 226 226 226
358 240 236 226 200 190 187 193 194 196 207 213 222 223 220 218 203 220 220 222 227 231 234 236 242 248 251 252 253 253 253 242 230 217 219 221 227 228 222 220 215 210 225
3 15 198 215 206 197 194 188 196 205 203 201 198 198 203 208 196 209 221 225 230 234 237 243 249 249 247 249 246 247 251 255 253 250 228 231 232 242 233 219 217 217 216
5 17 50 149 199 188 194 195 201 210 204 200 206 209 211 207 204 209 214 222 227 229 236 241 251 257 251 249 248 249 249 249 248 245 248 251 257 251 249 244 240 230 229
7 15 26 73 122 170 180 182 188 191 194 201 207 209 216 223 225 223 230 227 229 230 240 245 250 246 251 250 248 251 256 257 256 257 256 256 254 262 259 244 219 203 204
23 22 48 71 99 107 125 157 172 187 191 192 192 205 216 223 232 232 226 226 229 236 238 242 246 249 254 258 249 246 244 253 263 269 262 253 256 258 256 244 231 200 197
64 69 81 82 88 94 99 105 121 142 146 139 131 138 161 183 206 217 222 225 231 234 238 248 257 260 252 252 251 250 251 263 262 268 268 266 259 248 242 232 230 226 210
110 98 95 97 96 96 102 103 110 120 118 114 111 97 97 106 122 161 184 209 232 246 253 261 266 255 251 249 249 252 253 253 250 247 241 241 238 234 238 236 234 229 232
114 111 104 101 101 104 107 110 111 118 111 106 106 98 91 88 90 95 116 149 178 190 211 240 265 277 271 259 250 244 243 235 237 232 234 243 251 253 240 231 231 225 227
124 111 103 100 99 94 92 95 103 102 103 102 99 97 95 90 88 92 102 111 115 116 108 96 91 82 27 295 270 235 221 224 224 226 227 231 238 237 240 239 226 219 216
116 103 97 92 91 87 81 77 77 82 98 99 97 98 93 80 82 97 104 104 107 105 99 89 69 63 68 64 75 173 173 197 199 201 208 215 222 227 229 229 222 210 208
105 101 97 95 91 93 93 85 81 84 89 97 96 97 95 98 98 96 95 96 101 107 100 89 82 80 79 83 82 88 99 152 170 163 149 206 212 212 216 212 218 217 218
104 107 106 103 100 97 96 94 91 81 78 74 77 92 96 100 100 103 110 111 109 110 95 90 83 77 73 72 71 70 67 50 24 24 22 241 221 206 206 216 221 224 224
111 113 111 110 108 109 97 99 101 81 69 68 68 68 71 88 93 96 100 104 85 84 85 81 79 78 72 68 66 65 65 65 66 65 69 112 119 140 193 209 214 220 230
104 104 106 106 103 104 106 101 97 88 78 73 80 77 71 71 82 86 88 87 78 73 73 71 70 69 65 62 58 57 56 52 51 53 53 59 237 223 227 244 249 256 260
69 81 92 93 93 98 96 85 87 85 79 70 63 62 76 88 73 73 77 78 76 73 71 67 62 62 59 56 52 50 49 48 48 45 43 37 16 316 283 289 278 272 267
53 74 85 91 88 90 89 87 85 84 80 77 69 65 70 84 79 76 74 70 67 60 58 55 50 50 48 46 47 45 44 43 42 37 32 24 12 359 343 318 296 283 278
63 67 78 79 81 82 87 87 88 86 81 80 77 70 70 75 74 70 69 63 56 68 74 66 62 53 38 32 25 20 19 23 21 17 12 6 355 349 342 331 319 304 293
63 67 69 74 80 83 83 79 74 74 74 72 70 67 63 65 65 68 61 58 36 25 59 41 17 358 354 358 6 8 9 8 1 350 341 332 332 330 327 321 316 304 292
53 56 60 64 59 68 67 69 68 63 62 64 59 51 45 45 48 48 53 43 18 3 20 10 350 352 353 353 325 312 312 314 321 321 323 324 325 322 315 322 324 308 305
42 46 48 50 54 61 61 55 52 44 47 49 30 20 21 24 20 10 11 1 331 321 325 326 325 324 324 323 321 313 304 297 301 302 304 303 309 314 316 311 315 311 310
27 30 35 38 43 46 36 35 36 26 20 6 352 353 2 336 310 316 311 301 293 292 299 306 309 305 306 305 304 304 302 299 301 306 319 314 309 308 309 302 303 309 309
Height
716 717 718 722 725 728 730 732 736 744 749 755 760 766 775 781 788 795 800 805 811 815 819 823 828 832 837 841 844 846 848 849 850 852 855 856 857 858 861 864 868 871 875
715 716 718 719 721 727 731 733 737 744 748 752 757 764 772 778 785 791 795 799 805 808 813 818 822 827 831 834 838 839 842 845 848 847 850 852 854 854 857 860 861 865 870
715 716 717 719 720 723 728 731 737 745 747 752 757 762 769 775 780 785 790 795 799 803 809 813 816 820 824 827 830 832 835 839 842 843 845 847 849 850 852 855 858 858 862
715 716 717 718 720 724 726 730 736 740 746 752 757 761 766 770 776 781 785 789 794 799 804 808 812 814 817 820 823 825 828 832 836 838 840 841 844 845 848 849 852 855 856
715 715 717 719 720 723 727 731 735 739 744 751 756 759 765 770 773 778 781 785 789 795 798 803 806 809 812 815 817 819 822 825 828 831 833 836 837 837 837 842 846 847 852
716 714 715 717 720 722 726 728 734 736 740 745 749 755 761 767 770 772 777 782 785 788 794 798 802 805 806 810 812 815 817 819 821 823 825 827 826 829 830 834 838 844 849
717 715 714 715 717 720 723 727 730 735 735 741 747 752 756 761 764 769 773 776 780 785 790 794 797 799 801 803 805 810 810 813 813 815 816 819 821 822 826 828 830 832 834
719 717 716 716 717 719 721 724 727 730 734 737 741 745 751 755 760 763 767 770 775 780 783 786 789 790 793 796 799 801 803 805 808 810 809 811 813 817 819 820 822 826 828
722 719 718 716 717 718 721 723 727 730 732 734 739 743 749 753 755 760 765 768 771 775 778 782 785 789 789 792 793 794 797 797 800 802 804 805 807 810 813 815 817 822 824
724 723 721 719 717 718 719 722 725 728 732 734 737 742 746 749 753 756 760 762 767 769 773 778 780 782 783 786 788 789 791 791 792 794 797 800 801 802 804 807 811 813 818
726 725 723 723 721 721 720 722 724 727 731 734 737 743 744 748 750 753 757 760 762 766 769 770 774 777 780 781 783 783 784 785 787 790 792 794 796 798 798 801 805 808 811
727 727 727 726 726 726 724 724 726 729 732 736 739 742 747 750 751 753 755 758 762 764 766 767 771 774 775 775 777 778 780 782 783 786 788 790 791 792 795 799 801 804 808
729 731 730 729 730 730 729 730 732 735 736 739 743 747 750 751 752 755 756 759 761 764 765 767 769 769 771 773 774 774 776 778 780 782 784 785 788 789 792 794 799 801 805
732 732 734 735 733 734 735 736 737 737 739 742 746 749 752 753 754 755 757 760 762 764 766 767 769 769 770 770 771 772 772 776 777 779 780 781 784 786 791 793 794 799 803
730 733 735 738 739 740 742 744 745 745 745 745 749 750 751 754 757 759 761 761 762 764 765 766 768 766 768 769 771 773 773 776 778 778 779 781 783 785 787 790 793 797 802
727 734 737 742 744 745 747 749 751 752 750 751 752 753 755 757 760 761 762 764 765 765 766 767 770 772 772 771 772 773 775 777 779 779 778 779 781 784 787 791 793 795 797
729 738 741 743 748 749 751 752 753 758 757 756 756 758 760 762 763 765 766 767 768 769 770 771 772 772 773 774 773 774 776 777 780 780 780 779 782 784 786 790 792 794 797
736 740 741 746 749 752 753 752 754 758 760 760 760 762 765 766 767 767 769 769 770 771 774 776 775 776 776 777 778 777 778 780 780 780 780 781 782 784 787 789 791 792 794
740 741 746 750 752 756 758 756 755 760 764 764 764 765 768 770 770 769 770 771 773 775 777 778 779 779 778 779 781 781 782 782 782 782 783 783 784 786 788 789 790 791 792
749 747 751 754 757 761 761 762 760 764 767 768 769 770 771 771 773 775 775 776 778 781 781 782 784 782 782 783 784 784 785 785 785 784 784 785 786 787 787 787 788 788 789
762 760 760 761 765 766 765 764 768 770 770 772 774 777 777 776 779 780 780 781 783 784 784 785 786 786 787 787 787 788 788 788 787 787 787 787 787 787 787 786 786 787 787
772 769 767 770 772 773 772 772 776 774 775 777 780 781 781 782 783 784 785 786 787 788 789 789 789 790 790 790 789 789 789 788 788 788 788 788 788 787 787 786 786 787 787
774 775 779 778 776 778 778 776 778 777 780 783 784 785 785 785 786 787 787 788 788 788 788 789 789 789 789 789 789 789 788 788 788 788 788 788 788 788 787 787 786 786 786
781 783 783 781 782 779 779 779 781 783 785 785 786 787 788 788 788 789 788 788 788 788 789 790 790 789 789 789 788 788 788 788 788 788 788 788 787 787 786 786 785 784 783
789 789 788 785 782 782 782 783 784 787 787 788 788 788 789 789 789 789 788 788 788 788 789 789 789 788 788 787 787 786 786 786 786 786 785 785 784 784 783 782 782 781 780
791 789 787 785 785 784 784 785 787 788 789 789 789 789 788 788 789 788 787 787 787 787 787 787 787 786 786 785 784 784 783 783 783 782 783 782 782 781 780 780 779 778 777